STARLINK-4746 (53846 NORAD) Tracking and Keplerian Element Data

This shows tracking and keplerian element data for the satellite.

Feedback or suggestion? Click here.




ElementValue
Catalog53846
NameSTARLINK-4746
Epoch Orbit1053
Epoch Day325.33334491
Epoch Year2022
RAAN305.6352
Inclination53.2173
Eccentricity0.0001109
Argument of Perigee70.2378
Mean Anonmoly319.2621
Mean Motion15.66437333
Decay Rate-0.01137931
L11 53846U 22114AE 22325.33334491 -.01137931 00000+0 -11854-1 0 9996
L22 53846 53.2173 305.6352 0001109 70.2378 319.2621 15.66437333 10535



Live tracking and technical data element details for STARLINK-4746 (NORAD 53846). STARLINK-4746 can be tracked NOW for your location showing map with azimuth and elevation plus other details from your city location.







IsCatalogInMostPopularTable: catalog: 53846, numindb: -1

Insert: records affected: 1


GetName: 53846 STARLINK-4746

Hit Count: inserted at: Thu, 08 Dec 2022 08:39:18 GMT